Prairie Du Chien, WI

7:42 PM CST on February 05, 2016 (GMT -0600)
Prairie Du Chien Municipal

Weather History for KPDC - November, 2013

Change the Weather History Date:

Saturday, November 9, 2013

  Actual Average Record
Temperature  
Mean Temperature 44 °F -  
Max Temperature 51 °F 48 °F - (-1)
Min Temperature 36 °F 31 °F - (-1)
Degree Days  
Heating Degree Days 22    
Moisture  
Dew Point 33 °F    
Average Humidity 63    
Maximum Humidity 73    
Minimum Humidity 49    
Precipitation  
Precipitation 0.00 in - - ()
Sea Level Pressure  
Sea Level Pressure 29.94 in    
Wind  
Wind Speed 11 mph (West)    
Max Wind Speed 29 mph    
Max Gust Speed 38 mph    
Visibility 10 miles    
Events      
Averages and records for this station are not official NWS values.
T = Trace of Precipitation, MM = Missing Value Source: NWS Daily Summary

Daily Weather History Graph

Daily Weather History Graph

Search for Another Location

Airport or City:

Trip Planner

Search our weather history database for the weather conditions in past years. The results will help you decide how hot, cold, wet, or windy it might be!

Date:

Astronomy

Nov. 09, 2013 Rise Set
Actual Time 6:49 AM CST 4:46 PM CST
Civil Twilight 6:19 AM CST 5:16 PM CST
Nautical Twilight 5:45 AM CST 5:50 PM CST
Astronomical Twilight 5:12 AM CST 6:23 PM CST
Moon 12:25 PM CST (11/9) 11:19 PM CST (11/9)
Length of Visible Light 10h 57m
Length of Day
9h 56m
Waxing Crescent, 44% of the Moon is Illuminated
Nov 9
Waxing Crescent
Nov 9
First Quarter
Nov 17
Full
Nov 25
Last Quarter
Dec 2
New

Hourly Weather History & Observations

Time (CST) Temp. Windchill Dew Point Humidity Pressure Visibility Wind Dir Wind Speed Gust Speed Precip Events Conditions
12:15 AM 48.2 °F - 32.5 °F 55% 29.74 in 10.0 mi SSW 9.2 mph 17.3 mph N/A   Mostly Cloudy
12:35 AM 47.7 °F - 33.1 °F 57% 29.75 in 10.0 mi SSW 9.2 mph - N/A   Scattered Clouds
12:55 AM 46.8 °F - 33.8 °F 61% 29.75 in 10.0 mi SSW 6.9 mph - N/A   Clear
1:15 AM 46.2 °F 43.3 °F 34.2 °F 63% 29.74 in 10.0 mi SSW 5.8 mph - N/A   Clear
1:35 AM 45.9 °F 42.9 °F 34.7 °F 65% 29.74 in 10.0 mi SW 5.8 mph - N/A   Scattered Clouds
1:55 AM 46.4 °F 43.5 °F 35.2 °F 65% 29.75 in 10.0 mi SSW 5.8 mph - N/A   Mostly Cloudy
2:15 AM 45.5 °F 43.2 °F 35.2 °F 67% 29.76 in 10.0 mi SSW 4.6 mph - N/A   Scattered Clouds
2:35 AM 44.8 °F 42.4 °F 35.2 °F 69% 29.76 in 10.0 mi SW 4.6 mph - N/A   Clear
2:55 AM 45.5 °F 41.8 °F 35.8 °F 69% 29.76 in 10.0 mi SW 6.9 mph - N/A   Scattered Clouds
3:15 AM 45.5 °F 42.5 °F 36.0 °F 69% 29.76 in 10.0 mi SW 5.8 mph - N/A   Clear
3:35 AM 44.4 °F 41.2 °F 35.6 °F 71% 29.76 in 10.0 mi SW 5.8 mph - N/A   Clear
3:55 AM 44.6 °F 41.4 °F 36.1 °F 72% 29.78 in 10.0 mi SW 5.8 mph - N/A   Mostly Cloudy
4:15 AM 45.1 °F 42.8 °F 36.5 °F 72% 29.79 in 10.0 mi SW 4.6 mph - N/A   Overcast
4:35 AM 45.5 °F 41.8 °F 36.9 °F 72% 29.79 in 10.0 mi SW 6.9 mph - N/A   Overcast
4:55 AM 45.9 °F 41.2 °F 37.6 °F 73% 29.81 in 10.0 mi SW 9.2 mph - N/A   Overcast
5:15 AM 46.6 °F - 37.9 °F 72% 29.81 in 10.0 mi WSW 10.4 mph - N/A   Overcast
5:35 AM 47.1 °F - 38.3 °F 71% 29.81 in 10.0 mi WSW 6.9 mph - N/A   Overcast
5:55 AM 47.3 °F - 38.5 °F 71% 29.82 in 10.0 mi WSW 10.4 mph 16.1 mph N/A   Overcast
6:15 AM 47.3 °F - 38.3 °F 71% 29.82 in 10.0 mi WSW 5.8 mph - N/A   Overcast
6:35 AM 46.2 °F 42.2 °F 37.8 °F 72% 29.82 in 10.0 mi WSW 8.1 mph - N/A   Mostly Cloudy
6:55 AM 45.7 °F 40.6 °F 37.6 °F 73% 29.84 in 10.0 mi WSW 10.4 mph 17.3 mph N/A   Scattered Clouds
7:15 AM 45.5 °F 39.9 °F 36.9 °F 72% 29.85 in 10.0 mi WSW 11.5 mph 23.0 mph N/A   Scattered Clouds
7:35 AM 45.1 °F 38.8 °F 36.1 °F 71% 29.86 in 10.0 mi WSW 13.8 mph 18.4 mph N/A   Scattered Clouds
7:55 AM 45.5 °F 41.3 °F 36.0 °F 69% 29.86 in 10.0 mi West 8.1 mph - N/A   Mostly Cloudy
8:15 AM 45.5 °F 41.8 °F 36.0 °F 69% 29.86 in 10.0 mi West 6.9 mph - N/A   Overcast
8:35 AM 45.7 °F 41.5 °F 36.0 °F 69% 29.87 in 10.0 mi West 8.1 mph - N/A   Overcast
8:55 AM 46.0 °F 41.4 °F 36.1 °F 68% 29.88 in 10.0 mi West 9.2 mph - N/A   Overcast
9:15 AM 46.0 °F 40.6 °F 36.0 °F 68% 29.88 in 10.0 mi West 11.5 mph - N/A   Overcast
9:35 AM 46.0 °F 41.4 °F 36.0 °F 68% 29.89 in 10.0 mi West 9.2 mph - N/A   Overcast
9:55 AM 46.4 °F 41.1 °F 36.3 °F 68% 29.89 in 10.0 mi West 11.5 mph - N/A   Overcast
10:15 AM 46.9 °F - 36.5 °F 67% 29.90 in 10.0 mi West 11.5 mph 17.3 mph N/A   Overcast
10:35 AM 49.1 °F - 37.4 °F 64% 29.90 in 10.0 mi West 11.5 mph 17.3 mph N/A   Mostly Cloudy
10:55 AM 50.5 °F - 37.8 °F 62% 29.91 in 10.0 mi West 15.0 mph 21.9 mph N/A   Scattered Clouds
11:15 AM 51.4 °F - 37.4 °F 59% 29.91 in 10.0 mi West 18.4 mph 25.3 mph N/A   Scattered Clouds
11:35 AM 50.2 °F - 36.3 °F 59% 29.91 in 10.0 mi West 19.6 mph 27.6 mph N/A   Overcast
11:55 AM 50.0 °F - 36.0 °F 59% 29.92 in 10.0 mi West 17.3 mph 28.8 mph N/A   Overcast
12:15 PM 50.0 °F - 36.7 °F 60% 29.92 in 10.0 mi West 16.1 mph 21.9 mph N/A   Overcast
12:35 PM 49.6 °F - 35.8 °F 59% 29.93 in 10.0 mi West 21.9 mph 33.4 mph N/A   Overcast
12:55 PM 51.4 °F - 36.1 °F 56% 29.93 in 10.0 mi West 28.8 mph 38.0 mph N/A   Overcast
1:15 PM 49.3 °F - 34.5 °F 57% 29.94 in 10.0 mi West 21.9 mph 27.6 mph N/A   Mostly Cloudy
1:35 PM 50.0 °F - 34.5 °F 55% 29.95 in 10.0 mi WNW 21.9 mph 31.1 mph N/A   Scattered Clouds
1:55 PM 50.0 °F - 34.9 °F 56% 29.96 in 10.0 mi West 18.4 mph 26.5 mph N/A   Scattered Clouds
2:15 PM 50.7 °F - 34.7 °F 54% 29.96 in 10.0 mi West 12.7 mph 25.3 mph N/A   Scattered Clouds
2:35 PM 51.4 °F - 34.9 °F 53% 29.96 in 10.0 mi West 16.1 mph 24.2 mph N/A   Clear
2:55 PM 50.7 °F - 34.0 °F 53% 29.97 in 10.0 mi West 18.4 mph 24.2 mph N/A   Clear
3:15 PM 50.5 °F - 34.0 °F 53% 29.98 in 10.0 mi West 15.0 mph 27.6 mph N/A   Scattered Clouds
3:35 PM 50.5 °F - 33.8 °F 53% 29.98 in 10.0 mi West 16.1 mph 26.5 mph N/A   Mostly Cloudy
3:55 PM 50.0 °F - 33.4 °F 53% 29.99 in 10.0 mi West 17.3 mph 26.5 mph N/A   Mostly Cloudy
4:15 PM 48.2 °F - 32.5 °F 55% 30.01 in 10.0 mi West 19.6 mph 27.6 mph N/A   Scattered Clouds
4:35 PM 46.8 °F - 32.7 °F 58% 30.02 in 10.0 mi WNW 11.5 mph 15.0 mph N/A   Mostly Cloudy
4:55 PM 46.8 °F - 32.5 °F 58% 30.03 in 10.0 mi West 15.0 mph 23.0 mph N/A   Overcast
5:15 PM 46.8 °F - 32.7 °F 58% 30.04 in 10.0 mi West 20.7 mph 34.5 mph N/A   Overcast
5:35 PM 45.7 °F 37.8 °F 30.9 °F 56% 30.05 in 10.0 mi West 20.7 mph 27.6 mph N/A   Scattered Clouds
5:55 PM 44.2 °F 39.2 °F 31.1 °F 60% 30.06 in 10.0 mi West 9.2 mph - N/A   Clear
6:15 PM 44.2 °F 37.3 °F 30.6 °F 59% 30.07 in 10.0 mi West 15.0 mph 23.0 mph N/A   Clear
6:35 PM 43.9 °F 35.0 °F 31.1 °F 61% 30.08 in 10.0 mi West 23.0 mph 28.8 mph N/A   Scattered Clouds
6:55 PM 42.8 °F 33.8 °F 25.0 °F 49% 30.09 in 10.0 mi WNW 21.9 mph 36.8 mph N/A   Scattered Clouds
7:15 PM 41.4 °F 32.7 °F 24.4 °F 51% 30.10 in 10.0 mi WNW 18.4 mph 26.5 mph N/A   Clear
7:35 PM 40.3 °F 32.6 °F 24.4 °F 53% 30.11 in 10.0 mi WNW 13.8 mph 18.4 mph N/A   Clear
8:35 PM 38.8 °F 32.6 °F 25.0 °F 58% 30.12 in 10.0 mi West 9.2 mph - N/A   Scattered Clouds
8:55 PM 39.4 °F 32.3 °F 25.7 °F 58% 30.13 in 10.0 mi West 11.5 mph 16.1 mph N/A   Mostly Cloudy
9:15 PM 38.1 °F 31.7 °F 26.2 °F 62% 30.13 in 10.0 mi West 9.2 mph 16.1 mph N/A   Scattered Clouds
9:35 PM 37.9 °F 30.5 °F 26.6 °F 64% 30.14 in 10.0 mi West 11.5 mph 18.4 mph N/A   Clear
9:55 PM 37.0 °F 31.0 °F 27.1 °F 67% 30.15 in 10.0 mi West 8.1 mph - N/A   Clear
10:15 PM 36.7 °F 30.5 °F 27.3 °F 69% 30.15 in 10.0 mi West 8.1 mph - N/A   Clear
10:35 PM 36.5 °F 28.2 °F 27.5 °F 70% 30.16 in 10.0 mi West 12.7 mph - N/A   Clear
10:55 PM 36.7 °F 28.4 °F 27.5 °F 69% 30.17 in 10.0 mi West 12.7 mph 16.1 mph N/A   Clear
11:15 PM 36.5 °F 28.7 °F 27.5 °F 70% 30.17 in 10.0 mi West 11.5 mph 16.1 mph N/A   Clear
11:35 PM 36.5 °F 26.3 °F 26.4 °F 67% 30.18 in 10.0 mi West 18.4 mph 23.0 mph N/A   Clear
11:55 PM 36.5 °F 27.0 °F 25.5 °F 64% 30.19 in 10.0 mi WNW 16.1 mph 23.0 mph N/A   Clear